Regional Weather Roundup
Issued by NWS

Home | Current Version | Previous Version | Graphics & Text | Print | Product List | Glossary On
Versions: 1 2 3 4 5 6 7 8 9 10 11 12 13 14 15 16 17 18 19 20 21 22 23 24 25 26 27 28 29 30 31 32 33 34 35 36 37 38 39 40 41 42 43 44 45 46 47 48 49 50
310
ASUS43 KOAX 201910
RWRNE

WEATHER ROUNDUP FOR NEBRASKA
NATIONAL WEATHER SERVICE OMAHA NE
200 PM CDT THU JUL 20 2017

NOTES: SATELLITE DATA IS BEING USED TO AUGMENT CLOUD COVER ABOVE
       12000 FEET.
       "FAIR" INDICATES FEW OR NO CLOUDS BELOW 12,000 FEET WITH NO
       SIGNIFICANT WEATHER AND/OR OBSTRUCTIONS TO VISIBILITY.


NEZ001>004-019>022-054>056-202000-
NEBRASKA PANHANDLE

CITY           SKY/WX    TMP DP  RH WIND       PRES   REMARKS
SCOTTSBLUFF    SUNNY     86  63  45 E9        30.11F
ALLIANCE       SUNNY     87  63  44 MISG      30.11F
CHADRON        SUNNY     91  58  32 S12G17    30.05F HX  90
GORDON         FAIR      85  64  48 S9        30.10F
KIMBALL        SUNNY     87  57  35 SE9       30.17F
SIDNEY         SUNNY     90  57  32 E10G18    30.14F
$$

NEZ057>060-069>072-079>082-202000-
SOUTHWEST NEBRASKA

CITY           SKY/WX    TMP DP  RH WIND       PRES   REMARKS
NORTH PLATTE   SUNNY     89  67  47 E17G25    30.03F HX  92
IMPERIAL       SUNNY     95  55  26 CALM      30.02F HX  93
LEXINGTON      MOSUNNY   87  70  57 SE10      30.02S HX  91
MCCOOK         SUNNY     97  64  33 E10       29.99F HX  99
OGALLALA       SUNNY     90  57  32 E17G23    30.06F
$$

NEZ005>010-023>029-035>040-094-202000-
NORTH CENTRAL NEBRASKA

CITY           SKY/WX    TMP DP  RH WIND       PRES   REMARKS
VALENTINE      SUNNY     98  56  24 SE8       30.03F HX  96
AINSWORTH      MOSUNNY   85  67  54 SE12G17   30.07S
BROKEN BOW     CLOUDY    90  68  48 NE15      30.03F HX  94
O`NEILL        CLOUDY    81  73  76 CALM      30.04F
ORD            CLOUDY    88  64  44 E10       30.01S
THEDFORD       CLOUDY    86  65  49 E13G20    30.08F
$$

NEZ041-046>049-061>064-073>077-083>087-202000-
SOUTH CENTRAL NEBRASKA

CITY           SKY/WX    TMP DP  RH WIND       PRES   REMARKS
GRAND ISLAND   PTSUNNY   87  73  62 SE10      30.00F HX  94
AURORA         PTSUNNY   87  73  64 E6        30.00S HX  94
HASTINGS       MOSUNNY   89  70  53 S9        30.01F HX  94
HEBRON         MOSUNNY   94  73  50 CALM      29.98F HX 102
HOLDREGE       MOSUNNY   87  68  52 E6        30.01F HX  90
KEARNEY        MOSUNNY   87  72  60 SE5       30.01F HX  93
YORK           PTSUNNY   90  73  58 SE7       29.99F HX  98
$$

NEZ011>018-030>034-042>045-202000-
NORTHEAST NEBRASKA

CITY           SKY/WX    TMP DP  RH WIND       PRES   REMARKS
NORFOLK        CLOUDY    91  68  46 CALM      30.01R HX  95
ALBION         PTSUNNY   92  71  50 E8        30.01F HX  98
BLAIR          SUNNY     94  73  49 SE5       29.97S HX 103
COLUMBUS       CLOUDY    90  73  57 E8        29.99F HX  98
FREMONT        SUNNY     93  71  48 E10       29.97F HX 100
TEKAMAH        CLOUDY    94  75  54 VRB5      29.95F HX 105
WAYNE          CLOUDY    89  79  72 NE7       30.00R HX 104
$$

NEZ050>053-065>068-078-088>093-202000-
SOUTHEAST NEBRASKA

CITY           SKY/WX    TMP DP  RH WIND       PRES   REMARKS
LINCOLN        SUNNY     93  72  50 S5        29.97F HX 101
OMAHA EPPLEY   MOSUNNY   96  70  42 SE9       29.94F HX 102
BEATRICE       SUNNY     94  72  48 S3        29.98F HX 102
FALLS CITY     SUNNY     95  73  48 SW10      29.97F HX 104
NEBRASKA CITY  SUNNY     90  77  65 S7        29.98F HX 103
PLATTSMOUTH    CLOUDY    91  75  58 S5        29.98S HX 101
$$

NEZ044-045-051>053-067-202000-
OMAHA AREA

CITY           SKY/WX    TMP DP  RH WIND       PRES   REMARKS
OMAHA EPPLEY   MOSUNNY   96  70  42 SE9       29.94F HX 102
BLAIR          SUNNY     94  73  49 SE5       29.97S HX 103
FREMONT        SUNNY     93  71  48 E10       29.97F HX 100
MILLARD        SUNNY     96  74  49 S5        29.96S HX 106
OFFUTT AFB     MOSUNNY   93  74  53 S8        29.96F HX 102
PLATTSMOUTH    CLOUDY    91  75  58 S5        29.98S HX 101
WAHOO          FAIR      94  70  45 SE5       29.97S HX 100
$$




USA.gov is the U.S. government's official web portal to all federal, state and local government web resources and services.